• In Moldova, Republic
  • List of Countries
  • For 7 days
  • Water Temperature
  • Satellite Maps
  • Weather Map
  • Weather Widgets
  • user-avatar
    Login

    Hourly Weather Benguela

    Today, 13 December, Wednesday

    Time Temperature Precipitation Wind Pressure Humidity
    00:00 +27°C° 0 mm 3 mps 759 mmHg 86%
    01:00 +27°C° 0 mm 3 mps 759 mmHg 86%
    02:00 +27°C° 0 mm 2 mps 759 mmHg 86%
    03:00 +27°C° 0 mm 2 mps 759 mmHg 87%
    04:00 +27°C° 0 mm 2 mps 758 mmHg 87%
    05:00 +27°C° 0 mm 2 mps 759 mmHg 87%
    06:00 +27°C° 0 mm 1 mps 759 mmHg 87%
    07:00 +28°C° 0 mm 1 mps 759 mmHg 85%
    08:00 +29°C° 0 mm 1 mps 759 mmHg 79%
    09:00 +31°C° 0 mm 1 mps 759 mmHg 72%
    10:00 +32°C° 0 mm 1 mps 759 mmHg 65%
    11:00 +34°C° 0 mm 2 mps 758 mmHg 61%
    12:00 +35°C° 0 mm 3 mps 758 mmHg 56%
    13:00 +29°C° 0 mm 2 mps 758 mmHg 79%
    14:00 +29°C° 0 mm 2 mps 758 mmHg 77%
    15:00 +30°C° 0 mm 2 mps 758 mmHg 76%
    16:00 +30°C° 0 mm 3 mps 757 mmHg 75%
    17:00 +30°C° 0 mm 2 mps 757 mmHg 76%
    18:00 +29°C° 0 mm 2 mps 758 mmHg 76%
    19:00 +29°C° 0 mm 2 mps 758 mmHg 77%
    20:00 +29°C° 0 mm 2 mps 758 mmHg 77%
    21:00 +29°C° 0 mm 3 mps 759 mmHg 77%
    22:00 +29°C° 0 mm 3 mps 759 mmHg 77%
    23:00 +28°C° 0 mm 3 mps 759 mmHg 78%

    Tomorrow, 14 December, Thursday

    Time Temperature Precipitation Wind Pressure Humidity
    00:00 +28°C° 0 mm 2 mps 759 mmHg 80%
    01:00 +28°C° 0 mm 2 mps 759 mmHg 82%
    02:00 +27°C° 0.1 mm 2 mps 759 mmHg 83%
    03:00 +27°C° 0.1 mm 2 mps 759 mmHg 84%
    04:00 +27°C° 0.1 mm 2 mps 758 mmHg 85%
    05:00 +28°C° 0 mm 2 mps 759 mmHg 83%
    06:00 +28°C° 0 mm 2 mps 759 mmHg 81%
    07:00 +28°C° 0 mm 2 mps 759 mmHg 80%
    08:00 +30°C° 0 mm 2 mps 759 mmHg 73%
    09:00 +32°C° 0 mm 2 mps 759 mmHg 67%
    10:00 +35°C° 0 mm 3 mps 759 mmHg 60%
    11:00 +35°C° 0 mm 3 mps 759 mmHg 58%
    12:00 +36°C° 0 mm 4 mps 758 mmHg 57%
    13:00 +36°C° 0 mm 4 mps 757 mmHg 55%
    14:00 +35°C° 0 mm 4 mps 757 mmHg 59%
    15:00 +34°C° 0 mm 4 mps 756 mmHg 62%
    16:00 +34°C° 0 mm 4 mps 756 mmHg 65%
    17:00 +32°C° 0 mm 4 mps 756 mmHg 70%
    18:00 +30°C° 0 mm 3 mps 757 mmHg 75%
    19:00 +29°C° 0 mm 3 mps 757 mmHg 81%
    20:00 +28°C° 0 mm 3 mps 758 mmHg 82%
    21:00 +28°C° 0 mm 2 mps 758 mmHg 84%
    22:00 +28°C° 0 mm 2 mps 759 mmHg 85%
    23:00 +27°C° 0 mm 2 mps 758 mmHg 86%

    Day after tomorrow, 15 December, Friday

    Time Temperature Precipitation Wind Pressure Humidity
    00:00 +27°C° 0 mm 2 mps 758 mmHg 87%
    01:00 +27°C° 0 mm 2 mps 758 mmHg 87%
    02:00 +27°C° 0 mm 2 mps 758 mmHg 88%
    03:00 +27°C° 0 mm 2 mps 758 mmHg 89%
    04:00 +27°C° 0 mm 2 mps 757 mmHg 89%
    05:00 +27°C° 0 mm 2 mps 758 mmHg 87%
    06:00 +28°C° 0 mm 1 mps 758 mmHg 84%
    07:00 +28°C° 0 mm 1 mps 758 mmHg 81%
    08:00 +30°C° 0 mm 2 mps 758 mmHg 73%
    09:00 +32°C° 0 mm 2 mps 758 mmHg 65%
    10:00 +35°C° 0 mm 2 mps 759 mmHg 58%
    11:00 +36°C° 0 mm 3 mps 758 mmHg 57%
    12:00 +36°C° 0 mm 3 mps 757 mmHg 56%
    13:00 +36°C° 0 mm 4 mps 756 mmHg 55%
    14:00 +36°C° 0 mm 4 mps 756 mmHg 59%
    15:00 +35°C° 0 mm 4 mps 756 mmHg 62%
    16:00 +34°C° 0 mm 4 mps 755 mmHg 66%
    17:00 +32°C° 0.1 mm 4 mps 756 mmHg 71%
    18:00 +30°C° 0.1 mm 3 mps 756 mmHg 76%
    19:00 +29°C° 0.1 mm 3 mps 757 mmHg 81%
    20:00 +28°C° 0.1 mm 3 mps 757 mmHg 81%
    21:00 +28°C° 0.1 mm 3 mps 758 mmHg 82%
    22:00 +28°C° 0.1 mm 2 mps 759 mmHg 82%
    23:00 +28°C° 0.5 mm 2 mps 758 mmHg 83%

    16 December, Saturday

    Time Temperature Precipitation Wind Pressure Humidity
    00:00 +28°C° 0.5 mm 2 mps 758 mmHg 84%
    01:00 +28°C° 0.5 mm 1 mps 757 mmHg 84%
    02:00 +27°C° 0.5 mm 1 mps 757 mmHg 85%
    03:00 +27°C° 0.5 mm 1 mps 757 mmHg 86%
    04:00 +27°C° 0.5 mm 1 mps 757 mmHg 87%
    05:00 +27°C° 0.1 mm 1 mps 757 mmHg 86%
    06:00 +26°C° 0.1 mm 0 mps 757 mmHg 85%
    07:00 +26°C° 0.1 mm 0 mps 758 mmHg 84%
    08:00 +29°C° 0 mm 1 mps 758 mmHg 78%
    09:00 +31°C° 0 mm 1 mps 758 mmHg 72%
    10:00 +32°C° 0 mm 2 mps 759 mmHg 66%
    11:00 +32°C° 0.2 mm 2 mps 758 mmHg 65%
    12:00 +33°C° 0.2 mm 3 mps 758 mmHg 63%
    13:00 +34°C° 0.2 mm 3 mps 757 mmHg 62%
    14:00 +33°C° 0 mm 3 mps 757 mmHg 64%
    15:00 +33°C° 0 mm 3 mps 756 mmHg 67%
    16:00 +31°C° 0 mm 3 mps 756 mmHg 69%
    17:00 +30°C° 0 mm 3 mps 756 mmHg 74%
    18:00 +29°C° 0 mm 2 mps 757 mmHg 78%
    19:00 +28°C° 0 mm 2 mps 757 mmHg 83%
    20:00 +28°C° 0.1 mm 2 mps 758 mmHg 84%
    21:00 +28°C° 0.1 mm 2 mps 758 mmHg 85%
    22:00 +28°C° 0.1 mm 1 mps 759 mmHg 86%
    23:00 +27°C° 0.5 mm 1 mps 758 mmHg 87%

    17 December, Sunday

    Time Temperature Precipitation Wind Pressure Humidity
    00:00 +27°C° 0.5 mm 1 mps 758 mmHg 88%
    01:00 +27°C° 0.5 mm 1 mps 757 mmHg 89%
    02:00 +27°C° 0.7 mm 1 mps 757 mmHg 90%
    03:00 +27°C° 0.7 mm 1 mps 757 mmHg 90%
    04:00 +27°C° 0.7 mm 1 mps 757 mmHg 91%
    05:00 +27°C° 0.9 mm 1 mps 757 mmHg 90%
    06:00 +27°C° 0.9 mm 1 mps 758 mmHg 90%
    07:00 +28°C° 0.9 mm 1 mps 758 mmHg 89%
    08:00 +28°C° 0.5 mm 1 mps 758 mmHg 86%
    09:00 +29°C° 0.5 mm 1 mps 758 mmHg 84%
    10:00 +29°C° 0.5 mm 2 mps 758 mmHg 81%
    11:00 +30°C° 0.1 mm 2 mps 758 mmHg 78%
    12:00 +31°C° 0.1 mm 2 mps 758 mmHg 75%
    13:00 +33°C° 0.1 mm 3 mps 757 mmHg 72%
    14:00 +31°C° 0.3 mm 3 mps 757 mmHg 75%
    15:00 +31°C° 0.3 mm 3 mps 757 mmHg 77%
    16:00 +30°C° 0.3 mm 3 mps 756 mmHg 80%
    17:00 +29°C° 0.1 mm 3 mps 757 mmHg 83%
    18:00 +29°C° 0.1 mm 2 mps 757 mmHg 85%
    19:00 +28°C° 0.1 mm 2 mps 758 mmHg 88%
    20:00 +28°C° 0.1 mm 2 mps 758 mmHg 88%
    21:00 +28°C° 0.1 mm 2 mps 759 mmHg 89%
    22:00 +27°C° 0.1 mm 2 mps 759 mmHg 90%
    23:00 +27°C° 0 mm 2 mps 759 mmHg 90%

    18 December, Monday

    Time Temperature Precipitation Wind Pressure Humidity
    00:00 +27°C° 0 mm 1 mps 758 mmHg 91%
    01:00 +27°C° 0 mm 1 mps 758 mmHg 92%
    02:00 +27°C° 0 mm 1 mps 758 mmHg 93%
    03:00 +27°C° 0 mm 1 mps 757 mmHg 93%
    04:00 +26°C° 0 mm 1 mps 757 mmHg 93%
    05:00 +27°C° 0 mm 1 mps 758 mmHg 92%
    06:00 +25°C° 0 mm 0 mps 758 mmHg 90%
    07:00 +26°C° 0 mm 0 mps 758 mmHg 89%
    08:00 +29°C° 0.1 mm 1 mps 758 mmHg 82%
    09:00 +31°C° 0.1 mm 2 mps 758 mmHg 76%
    10:00 +32°C° 0.1 mm 2 mps 758 mmHg 70%
    11:00 +33°C° 0.3 mm 3 mps 758 mmHg 71%
    12:00 +33°C° 0.3 mm 4 mps 757 mmHg 73%
    13:00 +32°C° 0.3 mm 4 mps 756 mmHg 74%
    14:00 +32°C° 0.1 mm 4 mps 756 mmHg 75%
    15:00 +30°C° 0.1 mm 4 mps 756 mmHg 77%
    16:00 +30°C° 0.1 mm 4 mps 756 mmHg 78%
    17:00 +29°C° 0 mm 3 mps 756 mmHg 81%
    18:00 +28°C° 0 mm 3 mps 757 mmHg 83%
    19:00 +28°C° 0 mm 2 mps 758 mmHg 86%
    20:00 +28°C° 0 mm 2 mps 758 mmHg 87%
    21:00 +27°C° 0 mm 2 mps 758 mmHg 88%
    22:00 +27°C° 0 mm 1 mps 759 mmHg 89%
    23:00 +27°C° 0 mm 1 mps 758 mmHg 90%
    Show more